Regional Weather Roundup
Issued by NWS

Home | Current Version | Previous Version | Text Only | Print | Product List | Glossary On
Versions: 1 2 3 4 5 6 7 8 9 10 11 12 13 14 15 16 17 18 19 20 21 22 23 24 25 26 27 28 29 30 31 32 33 34 35 36 37 38 39 40 41 42 43 44 45 46 47 48 49 50
000
ASUS43 KTOP 251408
RWRKS

WEATHER ROUNDUP FOR KANSAS
NATIONAL WEATHER SERVICE GOODLAND KS
800 AM CST SUN JAN 25 2015

NOTE:  "FAIR" INDICATES FEW OR NO CLOUDS BELOW 12,000 FEET WITH NO
SIGNIFICANT WEATHER AND/OR OBSTRUCTIONS TO VISIBILITY.

KSZ001>006-013>018-027>032-041>047-251500-
NORTHWEST KANSAS

CITY           SKY/WX    TMP DP  RH WIND       PRES   REMARKS
GOODLAND       CLEAR     37  25  61 NW15      30.08R WCI  28
HAYS           CLEAR     39  23  52 NW22G29   30.01R WCI  29
HILL CITY      CLEAR     38  26  62 NW18G26   30.03R WCI  28
RUSSELL        PTCLDY    38  29  70 NW24      29.97R WCI  27
$$

KSZ061>065-074>080-084>089-251500-
SOUTHWEST KANSAS

CITY           SKY/WX    TMP DP  RH WIND       PRES   REMARKS
DODGE CITY     CLEAR     38  23  55 NW16      30.06R WCI  29
ELKHART          N/A     35  23  61 W10         N/A  WCI  27
GARDEN CITY    CLEAR     36  23  59 NW13      30.07R WCI  27
GREAT BEND     PTCLDY    37  25  60 NW21G26   30.00R WCI  27
LIBERAL        CLEAR     37  21  52 NW13      30.12R WCI  29
PRATT          CLEAR     37  28  70 NW16G22   30.01R WCI  28
$$

KSZ066>073-081>083-090>101-251500-
SOUTHEAST KANSAS

CITY           SKY/WX    TMP DP  RH WIND       PRES   REMARKS
CHANUTE        CLOUDY    46  34  62 NW25G40   29.77R
COFFEYVILLE    MOCLDY    48  35  60 NW22G36   29.80R
HUTCHINSON     CLOUDY    45  29  53 NW26G35   29.91R
MEDICINE LODGE   N/A     44  28  53 N24G37    29.97R
NEWTON         CLOUDY    45  30  57 N32G41    29.89R
PARSONS        MOCLDY    47  36  65 NW25G33   29.78R
WICHITA INTL   MOCLDY    47  30  51 NW22G31   29.90R
WICHITA JABRA  CLOUDY    45  31  58 NW20G35   29.88R
WICHITA MCCONL MOCLDY    46  31  57 NW24G31   29.89R
WINFIELD       CLOUDY    46  31  55 NW23G29   29.89R
$$

KSZ007>012-019>026-033>040-048>060-102>105-251500-
NORTHEAST KANSAS

CITY           SKY/WX    TMP DP  RH WIND       PRES   REMARKS
CONCORDIA      CLOUDY    42  34  73 NW17G31   29.89R
EMPORIA        CLOUDY    42  33  70 NW26G35   29.80R
LAWRENCE       CLOUDY    38  32  79 NW18G26   29.75R WCI  28
MANHATTAN      CLOUDY    42  32  67 NW12G22   29.85R
MARYSVILLE     CLOUDY    36  32  87 N24G32    29.83R WCI  24
OLATHE IND     LGT RAIN  37  34  89 NW22G33   29.73R WCI  26
OLATHE EXE     LGT RAIN  37  35  92 NW20G30   29.71R FOG     WCI  27
SALINA         CLOUDY    46  32  58 NW32G41   29.90R
TOPEKA BILLARD CLOUDY    39  31  72 NW25G33   29.79R WCI  28
TOPEKA FORBES  CLOUDY    40  31  70 NW24G37   29.77R WCI  29
$$


USA.gov is the U.S. government's official web portal to all federal, state and local government web resources and services.